TimeEST,TemperatureF,Dew PointF,Humidity,Sea Level PressureIn,VisibilityMPH,Wind Direction,Wind SpeedMPH,Gust SpeedMPH,PrecipitationIn,Events,Conditions,WindDirDegrees,DateUTC
12:15 AM,16.3,11.1,80,30.26,10.0,Calm,Calm,-,N/A,,Clear,0,2014-01-31 05:15:00
12:35 AM,15.3,10.9,83,30.25,10.0,Calm,Calm,-,N/A,,Clear,0,2014-01-31 05:35:00
12:55 AM,15.1,11.1,84,30.25,10.0,Calm,Calm,-,N/A,,Clear,0,2014-01-31 05:55:00
1:15 AM,15.4,8.8,75,30.24,10.0,Calm,Calm,-,N/A,,Clear,0,2014-01-31 06:15:00
1:35 AM,14.9,10.2,82,30.24,10.0,Calm,Calm,-,N/A,,Clear,0,2014-01-31 06:35:00
1:55 AM,14.7,10.9,85,30.24,10.0,Calm,Calm,-,N/A,,Clear,0,2014-01-31 06:55:00
2:15 AM,14.7,10.4,83,30.24,10.0,Calm,Calm,-,N/A,,Clear,0,2014-01-31 07:15:00
2:35 AM,14.2,10.4,85,30.24,10.0,Calm,Calm,-,N/A,,Clear,0,2014-01-31 07:35:00
2:55 AM,13.8,10.8,88,30.23,10.0,Calm,Calm,-,N/A,,Clear,0,2014-01-31 07:55:00
3:15 AM,14.0,10.4,86,30.22,10.0,Calm,Calm,-,N/A,,Clear,0,2014-01-31 08:15:00
3:35 AM,13.6,11.1,90,30.23,10.0,Calm,Calm,-,N/A,,Clear,0,2014-01-31 08:35:00
3:55 AM,14.0,10.4,86,30.24,10.0,Calm,Calm,-,N/A,,Clear,0,2014-01-31 08:55:00
4:15 AM,13.1,10.0,88,30.23,10.0,Calm,Calm,-,N/A,,Clear,0,2014-01-31 09:15:00
4:35 AM,13.8,11.1,89,30.23,10.0,Calm,Calm,-,N/A,,Clear,0,2014-01-31 09:35:00
4:55 AM,13.6,9.9,85,30.22,10.0,Calm,Calm,-,N/A,,Clear,0,2014-01-31 09:55:00
5:15 AM,12.7,9.9,88,30.23,10.0,Calm,Calm,-,N/A,,Clear,0,2014-01-31 10:15:00
5:35 AM,13.1,10.2,88,30.24,10.0,Calm,Calm,-,N/A,,Clear,0,2014-01-31 10:35:00
5:55 AM,13.5,10.2,87,30.23,10.0,Calm,Calm,-,N/A,,Clear,0,2014-01-31 10:55:00
6:15 AM,13.5,10.4,88,30.23,10.0,Calm,Calm,-,N/A,,Clear,0,2014-01-31 11:15:00
6:35 AM,13.1,9.7,86,30.23,10.0,Calm,Calm,-,N/A,,Clear,0,2014-01-31 11:35:00
6:55 AM,13.1,10.6,90,30.22,10.0,Calm,Calm,-,N/A,,Clear,0,2014-01-31 11:55:00
7:15 AM,13.5,10.8,89,30.23,10.0,Calm,Calm,-,N/A,,Clear,0,2014-01-31 12:15:00
7:35 AM,13.6,10.8,88,30.23,10.0,Calm,Calm,-,N/A,,Clear,0,2014-01-31 12:35:00
7:55 AM,14.7,11.8,88,30.25,10.0,Calm,Calm,-,N/A,,Clear,0,2014-01-31 12:55:00
8:15 AM,17.8,13.5,83,30.25,10.0,Calm,Calm,-,N/A,,Clear,0,2014-01-31 13:15:00
8:35 AM,21.7,16.2,79,30.24,10.0,Calm,Calm,-,N/A,,Clear,0,2014-01-31 13:35:00
8:55 AM,25.3,18.5,75,30.25,10.0,Calm,Calm,-,N/A,,Clear,0,2014-01-31 13:55:00
9:15 AM,28.2,17.2,63,30.26,10.0,Calm,Calm,-,N/A,,Clear,0,2014-01-31 14:15:00
9:35 AM,30.9,16.9,56,30.27,10.0,Calm,Calm,-,N/A,,Clear,0,2014-01-31 14:35:00
9:55 AM,33.4,14.5,46,30.26,10.0,SW,4.6,-,N/A,,Clear,220,2014-01-31 14:55:00
10:15 AM,36.0,13.5,40,30.26,10.0,Calm,Calm,-,N/A,,Clear,0,2014-01-31 15:15:00
10:35 AM,37.6,12.2,35,30.26,10.0,Calm,Calm,-,N/A,,Clear,0,2014-01-31 15:35:00
10:55 AM,39.9,13.3,34,30.26,10.0,Calm,Calm,-,N/A,,Clear,0,2014-01-31 15:55:00
11:15 AM,41.2,13.3,32,30.25,10.0,WSW,5.8,-,N/A,,Clear,240,2014-01-31 16:15:00
11:35 AM,43.0,13.8,31,30.24,10.0,SW,3.5,-,N/A,,Clear,220,2014-01-31 16:35:00
11:55 AM,44.2,14.5,30,30.23,10.0,WNW,5.8,-,N/A,,Clear,290,2014-01-31 16:55:00
12:15 PM,45.7,13.8,28,30.23,10.0,Calm,Calm,-,N/A,,Clear,0,2014-01-31 17:15:00
12:35 PM,47.3,12.4,25,30.21,10.0,WSW,8.1,-,N/A,,Clear,240,2014-01-31 17:35:00
12:55 PM,48.0,13.1,25,30.20,10.0,SW,5.8,-,N/A,,Clear,230,2014-01-31 17:55:00
1:15 PM,49.6,13.3,23,30.19,10.0,SW,4.6,-,N/A,,Clear,220,2014-01-31 18:15:00
1:35 PM,51.1,13.3,22,30.19,10.0,SW,8.1,-,N/A,,Clear,230,2014-01-31 18:35:00
1:55 PM,51.6,14.2,23,30.18,10.0,South,3.5,-,N/A,,Clear,170,2014-01-31 18:55:00
2:15 PM,53.2,13.8,21,30.17,10.0,SSW,6.9,-,N/A,,Clear,200,2014-01-31 19:15:00
2:35 PM,54.1,14.4,21,30.16,10.0,South,4.6,-,N/A,,Clear,180,2014-01-31 19:35:00
2:55 PM,54.5,13.8,20,30.16,10.0,SW,4.6,-,N/A,,Clear,220,2014-01-31 19:55:00
3:15 PM,54.7,15.3,21,30.17,10.0,SSW,8.1,-,N/A,,Clear,200,2014-01-31 20:15:00
3:35 PM,54.1,16.7,23,30.17,10.0,SE,6.9,-,N/A,,Clear,140,2014-01-31 20:35:00
3:55 PM,54.5,16.3,22,30.17,10.0,South,10.4,-,N/A,,Clear,190,2014-01-31 20:55:00
4:15 PM,53.8,17.4,24,30.17,10.0,SSE,4.6,-,N/A,,Clear,160,2014-01-31 21:15:00
4:35 PM,53.2,18.0,25,30.17,10.0,SSE,6.9,-,N/A,,Clear,160,2014-01-31 21:35:00
4:55 PM,52.9,17.8,25,30.17,10.0,SSE,6.9,-,N/A,,Clear,160,2014-01-31 21:55:00
5:15 PM,50.5,18.1,28,30.18,10.0,SSE,4.6,-,N/A,,Clear,160,2014-01-31 22:15:00
5:35 PM,48.9,18.0,29,30.18,10.0,South,5.8,-,N/A,,Clear,170,2014-01-31 22:35:00
5:55 PM,46.0,17.2,32,30.18,10.0,South,4.6,-,N/A,,Clear,170,2014-01-31 22:55:00
6:15 PM,45.0,18.3,35,30.19,10.0,Calm,Calm,-,N/A,,Clear,0,2014-01-31 23:15:00
6:35 PM,38.8,21.2,49,30.20,10.0,Calm,Calm,-,N/A,,Clear,0,2014-01-31 23:35:00
6:55 PM,35.6,21.4,56,30.21,10.0,Calm,Calm,-,N/A,,Clear,0,2014-01-31 23:55:00
7:15 PM,35.1,21.0,57,30.21,10.0,Calm,Calm,-,N/A,,Clear,0,2014-02-01 00:15:00
7:35 PM,32.9,22.1,65,30.22,10.0,Calm,Calm,-,N/A,,Clear,0,2014-02-01 00:35:00
7:55 PM,32.0,22.3,67,30.22,10.0,Calm,Calm,-,N/A,,Clear,0,2014-02-01 00:55:00
8:15 PM,30.6,22.1,71,30.22,10.0,Calm,Calm,-,N/A,,Clear,0,2014-02-01 01:15:00
8:35 PM,30.2,22.1,72,30.23,10.0,Calm,Calm,-,N/A,,Clear,0,2014-02-01 01:35:00
8:55 PM,30.6,22.1,71,30.23,10.0,Calm,Calm,-,N/A,,Clear,0,2014-02-01 01:55:00
9:15 PM,28.2,21.7,77,30.23,10.0,Calm,Calm,-,N/A,,Clear,0,2014-02-01 02:15:00
9:35 PM,28.0,22.1,78,30.24,10.0,Calm,Calm,-,N/A,,Clear,0,2014-02-01 02:35:00
9:55 PM,28.2,21.4,76,30.24,10.0,Calm,Calm,-,N/A,,Clear,0,2014-02-01 02:55:00
10:15 PM,27.3,21.6,79,30.24,10.0,Calm,Calm,-,N/A,,Clear,0,2014-02-01 03:15:00
10:35 PM,26.2,21.6,82,30.24,10.0,Calm,Calm,-,N/A,,Clear,0,2014-02-01 03:35:00
10:55 PM,26.6,21.2,80,30.24,10.0,Calm,Calm,-,N/A,,Clear,0,2014-02-01 03:55:00
11:15 PM,26.1,21.2,82,30.23,10.0,Calm,Calm,-,N/A,,Clear,0,2014-02-01 04:15:00
11:35 PM,25.9,21.0,82,30.23,10.0,Calm,Calm,-,N/A,,Clear,0,2014-02-01 04:35:00
11:55 PM,25.5,21.0,83,30.23,10.0,Calm,Calm,-,N/A,,Clear,0,2014-02-01 04:55:00